TimeEDT,TemperatureF,Dew PointF,Humidity,Sea Level PressureIn,VisibilityMPH,Wind Direction,Wind SpeedMPH,Gust SpeedMPH,PrecipitationIn,Events,Conditions,WindDirDegrees,DateUTC
12:53 AM,81.0,75.9,85,29.99,10.0,SE,10.4,-,N/A,,Clear,130,2013-08-08 04:53:00
1:53 AM,80.1,75.9,87,29.98,10.0,SE,8.1,-,N/A,,Partly Cloudy,140,2013-08-08 05:53:00
2:53 AM,80.1,75.9,87,29.97,10.0,SE,6.9,-,N/A,,Clear,130,2013-08-08 06:53:00
3:53 AM,80.1,75.9,87,29.97,10.0,ESE,8.1,-,N/A,,Clear,120,2013-08-08 07:53:00
4:53 AM,79.0,75.0,88,29.96,10.0,SE,6.9,-,N/A,,Clear,130,2013-08-08 08:53:00
5:53 AM,78.1,75.9,93,29.97,10.0,SE,5.8,-,N/A,,Clear,130,2013-08-08 09:53:00
6:53 AM,78.1,75.9,93,29.97,10.0,SSE,3.5,-,N/A,,Clear,150,2013-08-08 10:53:00
7:53 AM,81.0,75.9,85,29.98,10.0,ESE,4.6,-,N/A,,Clear,110,2013-08-08 11:53:00
8:53 AM,84.0,75.9,76,30.00,10.0,SE,13.8,-,N/A,,Partly Cloudy,130,2013-08-08 12:53:00
9:53 AM,86.0,75.9,72,30.01,10.0,ESE,13.8,-,N/A,,Partly Cloudy,120,2013-08-08 13:53:00
10:53 AM,87.1,75.0,67,30.02,10.0,ESE,16.1,21.9,N/A,,Partly Cloudy,120,2013-08-08 14:53:00
11:53 AM,88.0,75.9,67,30.03,10.0,ESE,16.1,-,N/A,,Partly Cloudy,120,2013-08-08 15:53:00
12:53 PM,90.0,75.0,61,30.03,10.0,SE,13.8,23.0,N/A,,Clear,130,2013-08-08 16:53:00
1:53 PM,88.0,75.9,67,30.02,10.0,ESE,13.8,23.0,N/A,,Scattered Clouds,120,2013-08-08 17:53:00
2:53 PM,89.1,75.9,65,30.01,10.0,ESE,15.0,20.7,N/A,,Scattered Clouds,120,2013-08-08 18:53:00
3:53 PM,87.1,75.9,69,30.00,10.0,East,12.7,20.7,N/A,,Partly Cloudy,100,2013-08-08 19:53:00
4:53 PM,87.1,75.0,67,29.99,10.0,ESE,16.1,-,N/A,,Clear,110,2013-08-08 20:53:00
5:53 PM,86.0,75.0,70,29.98,10.0,East,15.0,-,N/A,,Clear,100,2013-08-08 21:53:00
6:53 PM,84.9,73.9,69,29.99,10.0,ESE,13.8,19.6,N/A,,Clear,110,2013-08-08 22:53:00
7:53 PM,82.9,75.0,77,30.01,10.0,ESE,10.4,-,N/A,,Clear,110,2013-08-08 23:53:00
8:53 PM,82.0,73.0,74,30.01,10.0,East,8.1,-,N/A,,Clear,100,2013-08-09 00:53:00
9:53 PM,81.0,73.9,79,30.04,10.0,East,6.9,-,N/A,,Clear,100,2013-08-09 01:53:00
10:53 PM,80.1,75.9,87,30.05,10.0,East,5.8,-,N/A,,Clear,90,2013-08-09 02:53:00
11:53 PM,80.1,75.9,87,30.05,10.0,East,6.9,-,N/A,,Clear,90,2013-08-09 03:53:00